Flag for Cambodia Weather past 2 weeks in Phnom Penh, Cambodia

Now
81 °F

Passing clouds.


Feels Like: 86 °F
Forecast: 77 / 94 °F
Wind: 7 mph from South

Location: Phnom-Penh / Pochentong

Current Time: Apr 28, 2015 at 3:45:22 AM

Latest Report: Apr 28, 2015 at 1:00 AM


Visibility: N/A

Pressure: 29.83 "Hg

Humidity: 84%

Dew point: 75 °F

Location of Phnom PenhLocation

Historic Weather in Phnom Penh — Graph

°F

Phnom Penh temperature yesterday

Maximum temperature yesterday: 93 °F (at 2:30 PM)
Minimum temperature yesterday: 77 °F (at 7:30 AM)
Average temperature yesterday: 87 °F

Past Weeks' High & Low Weather Summary

 TemperatureHumidityPressure
High104 °F (Apr 20, 3:00 PM)94% (Apr 19, 6:00 AM)29.95 "Hg (Apr 19, 6:00 AM)
Low77 °F (Apr 13, 6:00 AM)28% (Apr 15, 4:00 PM)29.62 "Hg (Apr 21, 3:30 PM)
Average88 °F61%29.80 "Hg
* Reported Apr 13 1:00 AM — Apr 28 1:00 AM, Phnom Penh, Weather by CustomWeather, © 2015

Note: Actual official high and low records may vary slightly from our data, if they occured in-between our weather recording intervals... More about our weather records

Advertising

Phnom Penh weather history for previous 24 hours

 ConditionsComfort  
Time TempWeatherWind HumidityBarometerVisibility
1:00 AM
Tue, Apr 28
81 °FPassing clouds.7 mph84%29.83 "HgN/A
12:30 AM81 °FPassing clouds.5 mph84%29.83 "HgN/A
12:00 AM81 °FPassing clouds.8 mph89%29.83 "HgN/A
11:30 PM
Mon, Apr 27
82 °FPassing clouds.7 mph79%29.83 "HgN/A
11:00 PM84 °FPassing clouds.5 mph74%29.83 "HgN/A
10:30 PM84 °FPassing clouds.5 mph74%29.83 "HgN/A
10:00 PM86 °FPartly cloudy.3 mph70%29.83 "HgN/A
9:30 PM86 °FPartly cloudy.3 mph70%29.83 "HgN/A
9:00 PM86 °FPartly cloudy.6 mph70%29.80 "HgN/A
8:30 PM86 °FPartly cloudy.7 mph70%29.80 "HgN/A
8:00 PM86 °FPartly cloudy.7 mph70%29.80 "HgN/A
7:30 PM86 °FPartly cloudy.6 mph70%29.77 "Hg6 mi
7:00 PM86 °FPassing clouds.8 mph70%29.77 "Hg6 mi
6:30 PM91 °FPassing clouds.2 mph56%29.74 "Hg6 mi
6:00 PM91 °FScattered clouds.1 mph56%29.74 "Hg6 mi
5:30 PM91 °FScattered clouds.3 mph56%29.74 "HgN/A
5:00 PM93 °FScattered clouds.5 mph49%29.74 "HgN/A
4:30 PM93 °FScattered clouds.6 mph53%29.71 "HgN/A
4:00 PM93 °FScattered clouds.7 mph53%29.71 "HgN/A
3:30 PM93 °FScattered clouds.6 mph56%29.74 "HgN/A
3:00 PM91 °FScattered clouds.6 mph59%29.74 "HgN/A
2:30 PM93 °FScattered clouds.5 mph53%29.77 "HgN/A
2:00 PM91 °FScattered clouds.5 mph56%29.77 "HgN/A
1:30 PM91 °FScattered clouds.3 mph52%29.80 "HgN/A
1:00 PM90 °FScattered clouds.5 mph59%29.80 "HgN/A
12:30 PM91 °FScattered clouds.5 mph56%29.83 "HgN/A
12:00 PM90 °FScattered clouds.3 mph63%29.83 "HgN/A
11:30 AM90 °FScattered clouds.1 mph67%29.83 "HgN/A
11:00 AM88 °FScattered clouds.2 mph59%29.86 "HgN/A
10:30 AM86 °FScattered clouds.5 mph66%29.86 "HgN/A
10:00 AM86 °FScattered clouds.2 mph70%29.86 "HgN/A
9:30 AM82 °FScattered clouds.2 mph79%29.86 "HgN/A
9:00 AMN/ABroken clouds.5 mphN/AN/A6 mi
8:30 AM77 °FLight rain. Broken clouds.5 mph94%29.89 "Hg6 mi
8:00 AM77 °FThunderstorms. Broken clouds.2 mph94%29.89 "Hg5 mi
7:30 AM77 °FThunderstorms. More clouds than sun.7 mph94%29.89 "Hg2 mi
7:00 AM79 °FThunderstorms. Broken clouds.5 mph94%29.86 "Hg3 mi
6:30 AM82 °FMore clouds than sun.No wind84%29.83 "Hg6 mi
6:00 AM82 °FMostly cloudy.No wind84%29.83 "Hg6 mi
Weather by CustomWeather, © 2015

See weather overviewHow to use our weather pages